Weather History for Jamestown, ND

Change the Weather History Date:

Saturday, July 13, 2013

  Actual Average Record
Temperature  
Mean Temperature 77 °F 70 °F  
Max Temperature 89 °F 82 °F 106 °F (1936)
Min Temperature 64 °F 57 °F 38 °F (1924)
Degree Days  
Heating Degree Days 0 1  
Month to date heating degree days 0 13  
Since 1 June heating degree days 85 110  
Since 1 July heating degree days 0 13  
Cooling Degree Days 12 6  
Month to date cooling degree days 104 67  
Year to date cooling degree days 215 167  
Since 1 June cooling degree days 204 147  
Growing Degree Days 26 (Base 50)    
Moisture  
Dew Point 66 °F    
Average Humidity 71    
Maximum Humidity 100    
Minimum Humidity 41    
Precipitation  
Precipitation 0.00 in 0.12 in 1.24 in (2010)
Month to date precipitation 0.17 1.58  
Year to date precipitation 7.52 10.32  
Sea Level Pressure  
Sea Level Pressure 29.92 in    
Wind  
Wind Speed 5 mph (ESE)    
Max Wind Speed 14 mph    
Max Gust Speed 18 mph    
Visibility 5 miles    
Events Fog    
T = Trace of Precipitation, MM = Missing Value Source: NWS Daily Summary

Daily Weather History Graph

Daily Weather History Graph

Search for Another Location

Airport:

Trip Planner

Search our weather history database for the weather conditions in past years. The results will help you decide how hot, cold, wet, or windy it might be!

Date:

Astronomy

Jul. 13, 2013 Rise Set
Actual Time 5:53 AM CDT 9:26 PM CDT
Civil Twilight 5:15 AM CDT 10:05 PM CDT
Nautical Twilight 4:24 AM CDT 10:55 PM CDT
Astronomical Twilight 3:15 AM CDT 12:03 AM CDT
Moon 11:35 AM CDT (7/13) 11:42 PM CDT (7/13)
Length of Visible Light 16h 49m
Length of Day
15h 33m
Waxing Crescent, 26% of the Moon is Illuminated
Jul 13
Waxing Crescent
Jul 15
First Quarter
Jul 22
Full
Jul 29
Last Quarter
Aug 6
New

Hourly Weather History & Observations

Time (CDT) Temp. Heat Index Dew Point Humidity Pressure Visibility Wind Dir Wind Speed Gust Speed Precip Events Conditions
12:56 AM 66.9 °F - 66.0 °F 97% 29.89 in 7.0 mi Calm Calm - N/A   Clear
1:26 AM 66.2 °F - 66.2 °F 100% 29.91 in 1.2 mi Calm Calm - N/A   Clear
1:34 AM 66.2 °F - 66.2 °F 100% 29.91 in 0.5 mi Calm Calm - N/A Fog Fog
1:40 AM 66.2 °F - 66.2 °F 100% 29.91 in 2.0 mi Calm Calm - N/A   Clear
1:47 AM 64.4 °F - 64.4 °F 100% 29.91 in 3.0 mi North 4.6 mph - N/A   Clear
1:56 AM 66.0 °F - 66.0 °F 100% 29.88 in 6.0 mi North 4.6 mph - N/A   Clear
2:56 AM 68.0 °F - 66.9 °F 96% 29.90 in 7.0 mi Calm Calm - N/A   Clear
3:51 AM 66.2 °F - 66.2 °F 100% 29.91 in 2.0 mi Calm Calm - N/A   Clear
3:56 AM 66.9 °F - 66.9 °F 100% 29.89 in 2.0 mi Calm Calm - N/A   Clear
4:02 AM 64.4 °F - 64.4 °F 100% 29.92 in 3.0 mi SSE 3.5 mph - N/A   Partly Cloudy
4:26 AM 66.2 °F - 66.2 °F 100% 29.92 in 1.8 mi Calm Calm - N/A   Partly Cloudy
4:32 AM 66.2 °F - 66.2 °F 100% 29.92 in 3.0 mi Calm Calm - N/A   Clear
4:39 AM 64.4 °F - 64.4 °F 100% 29.92 in 1.5 mi Calm Calm - N/A   Clear
4:44 AM 64.4 °F - 64.4 °F 100% 29.92 in 1.0 mi Calm Calm - N/A   Mist
4:52 AM 66.2 °F - 64.4 °F 94% 29.93 in 1.0 mi Calm Calm - N/A   Mist
4:56 AM 64.9 °F - 64.9 °F 100% 29.90 in 1.2 mi Calm Calm - N/A   Mostly Cloudy
5:00 AM 64.4 °F - 64.4 °F 100% 29.92 in 0.8 mi Calm Calm - N/A   Mist
5:09 AM 64.4 °F - 64.4 °F 100% 29.92 in 0.2 mi Calm Calm - N/A Fog Fog
5:37 AM 64.4 °F - 64.4 °F 100% 29.94 in 0.8 mi South 3.5 mph - N/A   Mist
5:43 AM 64.4 °F - 64.4 °F 100% 29.93 in 0.2 mi Calm Calm - N/A Fog Fog
5:56 AM 64.9 °F - 64.9 °F 100% 29.92 in 0.2 mi Calm Calm - N/A Fog Fog
6:02 AM 64.4 °F - 64.4 °F 100% 29.94 in 1.2 mi Calm Calm - N/A   Mostly Cloudy
6:06 AM 64.4 °F - 64.4 °F 100% 29.95 in 3.0 mi Calm Calm - N/A   Mostly Cloudy
6:14 AM 64.4 °F - 64.4 °F 100% 29.95 in 2.5 mi Calm Calm - N/A   Scattered Clouds
6:24 AM 64.4 °F - 64.4 °F 100% 29.94 in 1.0 mi Calm Calm - N/A   Mist
6:40 AM 66.2 °F - 66.2 °F 100% 29.95 in 2.0 mi Calm Calm - N/A   Clear
6:53 AM 66.2 °F - 66.2 °F 100% 29.96 in 3.0 mi Calm Calm - N/A   Clear
6:56 AM 66.0 °F - 66.0 °F 100% 29.94 in 4.0 mi Calm Calm - N/A   Clear
7:56 AM 69.1 °F - 68.0 °F 96% 29.94 in 3.0 mi Calm Calm - N/A   Partly Cloudy
8:56 AM 72.0 °F - 70.0 °F 93% 29.95 in 4.0 mi Calm Calm - N/A   Partly Cloudy
9:56 AM 75.0 °F - 68.0 °F 79% 29.96 in 10.0 mi NE 5.8 mph - N/A   Clear
10:56 AM 80.1 °F 82.9 °F 69.1 °F 69% 29.95 in 10.0 mi East 8.1 mph - N/A   Clear
11:56 AM 82.9 °F 86.5 °F 69.1 °F 63% 29.95 in 10.0 mi East 8.1 mph - N/A   Clear
12:56 PM 82.9 °F 85.8 °F 68.0 °F 60% 29.94 in 10.0 mi East 8.1 mph - N/A   Clear
1:56 PM 86.0 °F 88.2 °F 66.0 °F 51% 29.94 in 10.0 mi East 9.2 mph - N/A   Clear
2:56 PM 86.0 °F 87.6 °F 64.9 °F 49% 29.94 in 10.0 mi East 6.9 mph 16.1 mph N/A   Clear
3:56 PM 89.1 °F 90.0 °F 63.0 °F 42% 29.93 in 10.0 mi SE 6.9 mph - N/A   Clear
4:56 PM 87.1 °F 88.3 °F 64.0 °F 46% 29.92 in 10.0 mi ESE 6.9 mph - N/A   Clear
5:56 PM 87.1 °F 88.9 °F 64.9 °F 48% 29.91 in 10.0 mi ESE 8.1 mph - N/A   Clear
6:56 PM 86.0 °F 87.6 °F 64.9 °F 49% 29.88 in 10.0 mi ESE 8.1 mph - N/A   Clear
7:56 PM 84.9 °F 86.6 °F 64.9 °F 51% 29.86 in 10.0 mi SE 10.4 mph - N/A   Clear
8:56 PM 79.0 °F - 68.0 °F 69% 29.91 in 10.0 mi ESE 3.5 mph - N/A   Clear
9:56 PM 75.9 °F - 70.0 °F 82% 29.92 in 10.0 mi ESE 6.9 mph - N/A   Clear
10:56 PM 75.9 °F - 73.0 °F 91% 29.94 in 8.0 mi SE 6.9 mph - N/A   Clear
11:56 PM 75.0 °F - 73.0 °F 94% 29.97 in 6.0 mi ESE 5.8 mph - N/A   Clear